Content
SEND FEEDBACK

Daily
Averages
Monthly
Summary
United States of America

BLOCKTON, IOWA


Home > North America > United States > Iowa
Elevation: 1080 feet     Latitude: 40 36N     Longitude: 094 29W

WEATHER
 
SELECT A DAY
Number of Records: 176,418;   Date Range: 1/1/95 - 12/21/14
 
SHARE

PRINT THIS DATA

[ ← Previous Day ]
WEATHER ALMANAC - JANUARY 23, 2013
[ Next Day → ]
[ °C ]   °F
Weather ElementAverageHighLow
Temperature19.9 °F36 °F (12:53 pm)8.1 °F (11:53 pm)
Dewpoint8.7 °F17.1 °F (12:53 pm)-2 °F (11:53 pm)
Humidity63.7 %88 % (5:53 am)43 % (2:53 pm)
Barometer30.31 in30.53 in (11:53 pm)30.22 in (12:53 pm)
Wind Speed11.7 mph17.3 mph (6:53 pm)
Wind Gust25.3 mph (7:53 pm)
Weather ElementAverage
Visibility10 mi
Wind DirectionWSW (251.3 °)

Weather ElementTotal
Precipitation---
Heating Degree Days43 (Base 65)
Averaged from 23 records on January 23, 2013
WEATHER CONDITIONS BREAKOUT
WIND DIRECTION BREAKOUT
WEATHER BY HOUR - JANUARY 23, 2013
[ °C ]   °F
Local TimeTemperatureDewpointHumidityBarometerVisibilityWind DirectionWind SpeedGust SpeedPrecipitationEventsConditions
1:53 AM10.9 °F3.0 °F70 %30.32 in10.0 miSSE (160°)4.6 mphClear
2:53 AM10.9 °F3.9 °F73 %30.30 in10.0 miSouth (180°)8.1 mphClear
3:53 AM10.0 °F5.0 °F80 %30.29 in10.0 miSouth (180°)9.2 mphClear
4:53 AM10.0 °F5.0 °F80 %30.27 in10.0 miSouth (180°)6.9 mphClear
5:53 AM9.0 °F6.1 °F88 %30.25 in10.0 miSouth (190°)9.2 mphClear
6:53 AM10.0 °F6.1 °F84 %30.25 in10.0 miSouth (180°)9.2 mphClear
7:53 AM10.0 °F7.0 °F87 %30.25 in10.0 miSouth (180°)6.9 mphClear
8:53 AM14.0 °F9.0 °F80 %30.26 in10.0 miSSW (210°)10.4 mphClear
9:53 AM21.0 °F12.0 °F68 %30.25 in10.0 miWSW (240°)12.7 mphClear
10:53 AM28.0 °F14.0 °F56 %30.26 in10.0 miWest (270°)12.7 mphClear
11:53 AM32.0 °F15.1 °F50 %30.24 in10.0 miWNW (300°)12.7 mphClear
12:53 PM36.0 °F17.1 °F46 %30.22 in10.0 miNNW (340°)12.7 mph20.7 mphClear
1:53 PM36.0 °F17.1 °F46 %30.22 in10.0 miNNW (330°)13.8 mphClear
2:53 PM36.0 °F15.1 °F43 %30.25 in10.0 miNorth (350°)16.1 mph21.9 mphClear
3:53 PM33.1 °F12.9 °F43 %30.27 in10.0 miNorth (350°)15.0 mphClear
4:53 PM28.9 °F12.9 °F51 %30.30 in10.0 miNNW (340°)13.8 mphClear
5:53 PM26.1 °F12.9 °F58 %30.33 in10.0 miNorth (350°)9.2 mphClear
6:53 PM24.1 °F12.0 °F60 %30.36 in10.0 miNorth (360°)17.3 mph23.0 mphClear
7:53 PM21.0 °F10.0 °F63 %30.39 in10.0 miNorth (360°)17.3 mph25.3 mphClear
8:53 PM18.0 °F6.1 °F60 %30.43 in10.0 miNorth (350°)16.1 mph25.3 mphClear
9:53 PM14.0 °F1.0 °F56 %30.45 in10.0 miNorth (360°)12.7 mphClear
10:53 PM10.9 °F-0.9 °F59 %30.48 in10.0 miNorth (10°)11.5 mph25.3 mphClear
11:53 PM8.1 °F-2.0 °F64 %30.53 in10.0 miNorth (10°)11.5 mphClear
Hourly data recorded from KLWD, located miles away from Blockton, Iowa







STORIES FROM OUR PARTNERS